Location: Ottawa
(45.4170°N, 75.7000°W)
Time: 19:14:11
(UTC-05:00)

Amateur Radio Satellites - All Passes

Search period start: 04 March 2015 18:44
Search period end: 05 March 2015 18:44
Location: Ottawa, 45.4170°N, 75.7000°W

Satellite Date Start Highest point End Downlink Frequencies (MHz)
Time Altitude Azimuth
STRAND 1 04 Mar 18:59:55 19:05:05 66° 102° (ESE) 19:10:11 437.568
BEESAT 3 04 Mar 19:10:07 19:11:42 12° 331° (NNW) 19:13:11 437.485
AAUSAT CUBESAT 2 04 Mar 19:18:29 19:21:24 19° 65° (ENE) 19:24:27 437.432
VERMONT LUNAR 04 Mar 19:20:49 19:24:02 35° 185° (S) 19:27:16 437.305
COMPASS 1 04 Mar 19:22:23 19:25:40 24° 67° (ENE) 19:29:04 437.405
GOMX 1 04 Mar 19:23:32 19:28:32 44° 71° (ENE) 19:33:19 467.674
Oscar 11 04 Mar 19:27:52 19:29:53 13° 61° (ENE) 19:32:03 145.826/435.025
BRITE-PL 04 Mar 19:29:11 19:34:45 71° 75° (ENE) 19:40:04 437.365/2234.400
PRISM 04 Mar 19:30:50 19:34:39 32° 292° (WNW) 19:38:24 437.425
AIST 1 04 Mar 19:34:33 19:35:00 10° 277° (W) 19:35:11
PHONESAT 2.4 04 Mar 19:40:00 19:43:25 38° 181° (S) 19:46:49 2401.200-2431.200
CUBESAT XI-V 04 Mar 19:41:12 19:45:21 30° 292° (WNW) 19:49:23 437.345
CINEMA 3 04 Mar 19:41:15 19:45:01 25° 67° (ENE) 19:48:43 145.822/145.860
GONETS M04 04 Mar 19:41:58 19:45:43 14° 74° (ENE) 19:50:02
O/OREOS (USA 219) 04 Mar 19:45:23 19:48:46 20° 258° (WSW) 19:52:00 437.305
AIST 2 04 Mar 19:46:41 19:49:04 14° 329° (NNW) 19:51:22 435.215
DOVE 4 04 Mar 19:48:08 19:53:02 52° 72° (ENE) 19:57:43 437.250
CUBEBUG 2 04 Mar 19:48:24 19:51:07 17° 64° (ENE) 19:53:55 437.445
SEEDS 04 Mar 19:52:06 19:56:11 58° 74° (ENE) 20:00:19 437.485
PCSat 04 Mar 19:52:44 19:57:51 46° 115° (ESE) 20:03:03 145.827
DX 1 04 Mar 19:55:43 19:57:56 14° 61° (ENE) 20:00:20 434.975-435.025
CANX-2 04 Mar 19:58:44 20:02:58 89° 78° (ENE) 20:07:13 2200.000
HO-68 04 Mar 20:03:21 20:10:31 80° 255° (WSW) 20:17:44 435.675
DELFI C3 04 Mar 20:12:35 20:15:58 27° 68° (ENE) 20:19:26 145.870
FUNcube-1 04 Mar 20:15:52 20:19:00 21° 66° (ENE) 20:22:13 145.935
CUTE 1.7 + AOD 2 04 Mar 20:17:05 20:21:16 64° 259° (W) 20:25:28 437.475
ZACube-1 04 Mar 20:17:48 20:21:04 22° 67° (ENE) 20:24:23 437.345
VELOX 1 04 Mar 20:19:12 20:19:56 10° 58° (ENE) 20:20:52 145.980
UKube-1 04 Mar 20:21:06 20:24:30 23° 65° (ENE) 20:27:58 .
STRAND 1 04 Mar 20:40:11 20:43:49 19° 299° (WNW) 20:47:18 437.568
UWE-3 04 Mar 20:41:00 20:45:11 44° 72° (ENE) 20:49:17 435.000/436.395/437.385
RS-15 04 Mar 20:41:04 20:43:55 12° 96° (E) 20:47:48 29.354- 29.394
AAUSAT CUBESAT 2 04 Mar 20:52:53 20:56:49 41° 262° (W) 21:00:46 437.432
COMPASS 1 04 Mar 20:57:29 21:01:16 33° 264° (W) 21:05:03 437.405
VERMONT LUNAR 04 Mar 20:58:54 21:01:27 19° 201° (SSW) 21:03:59 437.305
Oscar 11 04 Mar 21:01:16 21:05:34 71° 258° (WSW) 21:09:52 145.826/435.025
GOMX 1 04 Mar 21:02:21 21:06:49 26° 267° (W) 21:11:02 467.674
BRITE-PL 04 Mar 21:09:57 21:13:46 18° 272° (W) 21:17:16 437.365/2234.400
50 SAT 04 Mar 21:12:12 21:15:35 28° 69° (ENE) 21:19:02 437.505
CINEMA 3 04 Mar 21:17:39 21:22:05 39° 263° (W) 21:26:20 145.822/145.860
PHONESAT 2.4 04 Mar 21:18:25 21:21:26 25° 198° (SSW) 21:24:26 2401.200-2431.200
CUBEBUG 2 04 Mar 21:23:05 21:27:30 57° 260° (W) 21:31:46 437.445
ANTELSAT 04 Mar 21:27:14 21:28:11 11° 87° (E) 21:29:23 437.575/2403.000
DOVE 4 04 Mar 21:27:15 21:31:05 21° 269° (W) 21:34:40 437.250
DX 1 04 Mar 21:29:19 21:33:42 71° 257° (WSW) 21:38:07 434.975-435.025
SEEDS 04 Mar 21:30:15 21:32:28 14° 272° (W) 21:34:30 437.485
GONETS M04 04 Mar 21:32:31 21:41:06 71° 94° (E) 21:49:45
PCSat 04 Mar 21:36:33 21:41:27 33° 314° (NW) 21:46:21 145.827
HUMSAT D 04 Mar 21:38:08 21:42:20 78° 74° (ENE) 21:46:29 437.325/437.525
CUBEBUG 1 04 Mar 21:39:20 21:43:05 28° 67° (ENE) 21:46:55 437.445
AISAT 04 Mar 21:42:56 21:47:24 68° 74° (ENE) 21:51:54 437.250
DELFI C3 04 Mar 21:47:41 21:51:10 27° 266° (W) 21:54:37 145.870
FUNcube-1 04 Mar 21:51:01 21:55:09 41° 262° (W) 21:59:12 145.935
VELOX 1 04 Mar 21:51:20 21:55:49 80° 75° (ENE) 22:00:20 145.980
ZACube-1 04 Mar 21:53:11 21:57:16 39° 262° (W) 22:01:17 437.345
HO-68 04 Mar 21:55:30 21:59:33 15° 275° (W) 22:03:10 435.675
UKube-1 04 Mar 21:56:22 22:00:28 38° 262° (W) 22:04:34 .
TISAT 1 04 Mar 22:00:45 22:02:14 12° 60° (ENE) 22:03:54 437.305
SPROUT 04 Mar 22:04:13 22:06:26 14° 62° (ENE) 22:08:48 437.525
DANDE 04 Mar 22:12:47 22:13:33 10° 90° (E) 22:14:39 436.750
BUGSAT 1 04 Mar 22:14:21 22:16:25 14° 88° (E) 22:18:38 437.445
QB50P1 04 Mar 22:15:13 22:18:15 19° 92° (E) 22:21:22 145.935-145.965
ESTCUBE 1 04 Mar 22:15:32 22:20:02 70° 74° (ENE) 22:24:35 437.505/2401.250
UWE-3 04 Mar 22:18:46 22:21:58 19° 269° (W) 22:25:01 435.000/436.395/437.385
QB50P2 04 Mar 22:19:42 22:22:59 22° 93° (E) 22:26:20 145.880/145.840
UNISAT 6 04 Mar 22:22:34 22:26:39 41° 98° (E) 22:30:47 437.425
CUSAT 1 04 Mar 22:26:28 22:29:45 16° 93° (E) 22:32:47 437.405
DUCHIFAT 1 04 Mar 22:32:28 22:36:08 28° 95° (E) 22:39:48 145.980
RS-15 04 Mar 22:43:32 22:54:04 60° 116° (ESE) 23:04:50 29.354- 29.394
TIGRISAT 04 Mar 22:46:23 22:50:41 73° 102° (ESE) 22:55:01 435.000
50 SAT 04 Mar 22:47:16 22:50:36 25° 266° (W) 22:53:54 437.505
POPSAT HIP 1 04 Mar 22:54:28 22:58:35 50° 99° (E) 23:02:41 437.405
POLYITAN 1 04 Mar 22:55:08 22:59:17 52° 100° (E) 23:03:24 437.675
ANTELSAT 04 Mar 23:01:18 23:05:37 77° 285° (WNW) 23:09:58 437.575/2403.000
CUBEBUG 1 04 Mar 23:15:23 23:19:24 32° 265° (W) 23:23:24 437.445
NANOSAT C BR1 04 Mar 23:16:39 23:20:54 88° 95° (E) 23:25:07 145.865
ITUPSAT 1 04 Mar 23:18:09 23:20:39 15° 60° (ENE) 23:23:21 437.325
AISAT 04 Mar 23:22:16 23:24:34 13° 272° (W) 23:26:41 437.250
PCSat 04 Mar 23:26:02 23:26:42 10° 338° (NNW) 23:27:13 145.827
GONETS M04 04 Mar 23:31:29 23:38:51 29° 297° (WNW) 23:46:02
VELOX 1 04 Mar 23:31:36 23:33:05 11° 274° (W) 23:34:18 145.980
TISAT 1 04 Mar 23:33:11 23:37:29 82° 258° (WSW) 23:41:47 437.305
SPROUT 04 Mar 23:37:44 23:42:03 68° 258° (WSW) 23:46:24 437.525
BUGSAT 1 04 Mar 23:48:15 23:52:22 56° 287° (WNW) 23:56:21 437.445
DANDE 04 Mar 23:50:19 23:56:45 79° 101° (E) 00:01:32 436.750
QB50P1 04 Mar 23:50:22 23:54:21 41° 289° (WNW) 23:58:18 145.935-145.965
QB50P2 04 Mar 23:55:08 23:59:03 36° 290° (WNW) 00:02:53 145.880/145.840
ESTCUBE 1 04 Mar 23:55:14 23:57:30 13° 273° (W) 23:59:33 437.505/2401.250
UNISAT 6 04 Mar 23:59:58 00:03:14 21° 295° (WNW) 00:06:26 437.425
CUSAT 1 05 Mar 00:06:47 00:12:35 61° 282° (WNW) 00:16:54 437.405
BEESAT 3 05 Mar 00:08:13 00:11:42 25° 41° (NE) 00:15:11 437.485
DUCHIFAT 1 05 Mar 00:08:19 00:11:56 28° 292° (WNW) 00:15:30 145.980
SO-50 05 Mar 00:10:58 00:14:13 20° 112° (ESE) 00:17:41 436.795
SWISSCUBE 05 Mar 00:16:16 00:20:53 51° 71° (ENE) 00:25:34 437.505
BEESAT 05 Mar 00:24:24 00:29:03 57° 72° (ENE) 00:33:47 436.000
TIGRISAT 05 Mar 00:24:54 00:26:58 13° 298° (WNW) 00:28:51 435.000
POPSAT HIP 1 05 Mar 00:31:18 00:34:10 17° 296° (WNW) 00:36:52 437.405
POLYITAN 1 05 Mar 00:32:05 00:34:52 17° 296° (WNW) 00:37:31 437.675
BEESAT 2 05 Mar 00:36:15 00:40:09 37° 46° (NE) 00:44:01 435.950
Oscar 19 05 Mar 00:44:27 00:48:31 24° 92° (E) 00:52:42 437.125/150
AIST 2 05 Mar 00:47:17 00:50:44 23° 40° (NE) 00:54:13 435.215
ITUPSAT 1 05 Mar 00:53:12 00:57:59 80° 258° (WSW) 01:02:50 437.325
NANOSAT C BR1 05 Mar 00:55:02 00:56:10 11° 300° (WNW) 00:57:07 145.865
RS-15 05 Mar 00:56:17 01:06:50 50° 322° (NW) 01:17:36 29.354- 29.394
YUBILEINY 05 Mar 01:31:09 01:38:27 29° 62° (ENE) 01:45:56 435.215
KKS-1 05 Mar 01:33:35 01:37:58 56° 72° (ENE) 01:42:22 437.445
STARS 05 Mar 01:34:35 01:38:40 38° 69° (ENE) 01:42:47 437.465
DANDE 05 Mar 01:37:00 01:40:19 15° 292° (WNW) 01:42:59 436.750
BEESAT 3 05 Mar 01:46:01 01:49:58 43° 241° (WSW) 01:53:50 437.485
SO-50 05 Mar 01:49:47 01:54:22 59° 310° (NW) 01:59:09 436.795
SWISSCUBE 05 Mar 01:55:35 01:59:07 20° 269° (W) 02:02:31 437.505
BEESAT 05 Mar 02:04:03 02:07:21 18° 270° (W) 02:10:29 436.000
Gurwin Techsat 1B 05 Mar 02:13:36 02:18:38 41° 97° (E) 02:23:39 435.225
BEESAT 2 05 Mar 02:14:41 02:18:13 26° 244° (WSW) 02:21:39 435.950
Oscar 19 05 Mar 02:23:14 02:28:09 46° 290° (WNW) 02:33:01 437.125/150
AIST 2 05 Mar 02:25:28 02:29:39 52° 240° (WSW) 02:33:44 435.215
ITAMSAT 1 05 Mar 02:26:49 02:32:03 69° 102° (ESE) 02:37:15 435.822/435.867
PCSat 05 Mar 02:55:57 02:59:00 15° 31° (NNE) 03:02:10 145.827
MOZHAYETS 4 05 Mar 03:03:32 03:07:18 26° 67° (ENE) 03:11:10
AUBIESAT-1 05 Mar 03:09:50 03:13:04 49° 67° (ENE) 03:16:31 437.475
M-CUBED/EXP-1 PRIME 05 Mar 03:10:01 03:13:18 56° 68° (ENE) 03:16:46 437.505
STARS 05 Mar 03:11:44 03:15:18 23° 267° (W) 03:18:47 437.465
JAS-2 05 Mar 03:12:07 03:17:43 23° 87° (E) 03:23:49 435.910
KKS-1 05 Mar 03:12:11 03:15:02 16° 270° (W) 03:17:42 437.445
RS-15 05 Mar 03:13:25 03:22:37 28° 354° (N) 03:32:03 29.354- 29.394
AO-7 05 Mar 03:18:44 03:25:47 31° 93° (E) 03:32:58 29.400- 29.500
HORYU 2 05 Mar 03:26:43 03:31:07 55° 101° (E) 03:35:30 437.375
YUBILEINY 05 Mar 03:27:25 03:36:14 72° 265° (W) 03:44:59 435.215
SO-50 05 Mar 03:33:12 03:35:59 15° 333° (NNW) 03:38:43 436.795
Gurwin Techsat 1B 05 Mar 03:53:53 03:58:30 30° 295° (WNW) 04:03:01 435.225
ITAMSAT 1 05 Mar 04:07:27 04:11:04 19° 300° (WNW) 04:14:31 435.822/435.867
PCSat 05 Mar 04:38:15 04:43:38 60° 53° (NE) 04:49:00 145.827
MOZHAYETS 4 05 Mar 04:40:13 04:44:26 35° 264° (W) 04:48:39
STRAND 1 05 Mar 04:41:07 04:44:26 18° 60° (ENE) 04:47:54 437.568
AUBIESAT-1 05 Mar 04:47:29 04:48:27 11° 267° (W) 04:49:14 437.475
PRISM 05 Mar 04:48:18 04:51:43 25° 67° (ENE) 04:55:12 437.425
JAS-2 05 Mar 04:56:02 05:03:32 82° 286° (WNW) 05:11:25 435.910
HORYU 2 05 Mar 05:04:23 05:07:25 18° 297° (WNW) 05:10:20 437.375
CUBESAT XI-V 05 Mar 05:09:07 05:13:29 41° 70° (ENE) 05:17:57 437.345
AO-7 05 Mar 05:11:00 05:19:13 66° 294° (WNW) 05:27:21 29.400- 29.500
YUBILEINY 05 Mar 05:26:54 05:31:37 15° 285° (WNW) 05:35:47 435.215
RS-15 05 Mar 05:28:53 05:39:05 38° 27° (NNE) 05:49:49 29.354- 29.394
Cubesat XI-IV 05 Mar 06:13:50 06:19:08 56° 100° (E) 06:24:24 437.490
STRAND 1 05 Mar 06:18:00 06:23:08 71° 257° (WSW) 06:28:19 437.568
CUTE-I 05 Mar 06:21:59 06:27:21 65° 102° (ESE) 06:32:40 437.470
PCSat 05 Mar 06:22:28 06:26:42 23° 251° (WSW) 06:30:45 145.827
PRISM 05 Mar 06:23:23 06:27:07 31° 264° (W) 06:30:53 437.425
AIST 1 05 Mar 06:25:15 06:29:21 42° 93° (E) 06:33:32
JAS-2 05 Mar 06:42:28 06:47:43 21° 304° (WNW) 06:52:57 435.910
CUBESAT XI-V 05 Mar 06:47:18 06:51:07 24° 268° (W) 06:54:54 437.345
SO-50 05 Mar 06:59:49 07:01:34 12° 22° (NNE) 07:03:25 436.795
AO-7 05 Mar 07:05:23 07:10:38 18° 315° (NW) 07:15:34 29.400- 29.500
ISS 05 Mar 07:24:59 07:27:16 18° 137° (SE) 07:29:36 145.825
HO-68 05 Mar 07:30:12 07:34:34 17° 86° (E) 07:39:17 435.675
BRITE-PL 05 Mar 07:33:53 07:36:36 16° 88° (E) 07:39:24 437.365/2234.400
GONETS M04 05 Mar 07:40:05 07:48:06 39° 68° (ENE) 07:56:16
RS-15 05 Mar 07:41:42 07:53:10 90° 65° (ENE) 08:05:09 29.354- 29.394
CANX-2 05 Mar 07:43:36 07:45:38 13° 88° (E) 07:47:53 2200.000
Cubesat XI-IV 05 Mar 07:54:42 07:58:54 23° 298° (WNW) 08:02:59 437.490
CUTE 1.7 + AOD 2 05 Mar 08:01:02 08:04:01 19° 91° (E) 08:07:08 437.475
CUTE-I 05 Mar 08:03:04 08:06:59 20° 299° (WNW) 08:10:45 437.470
AIST 1 05 Mar 08:04:01 08:07:17 20° 292° (WNW) 08:10:28
O/OREOS (USA 219) 05 Mar 08:19:42 08:23:51 36° 107° (ESE) 08:28:05 437.305
ANTELSAT 05 Mar 08:28:18 08:30:31 14° 62° (ENE) 08:32:54 437.575/2403.000
AAUSAT CUBESAT 2 05 Mar 08:34:07 08:37:37 25° 94° (E) 08:41:09 437.432
COMPASS 1 05 Mar 08:38:43 08:42:32 32° 96° (E) 08:46:21 437.405
SO-50 05 Mar 08:38:56 08:43:32 38° 44° (NE) 08:48:09 436.795
NANOSAT C BR1 05 Mar 08:39:39 08:40:15 10° 59° (ENE) 08:41:04 145.865
Oscar 11 05 Mar 08:47:24 08:50:19 18° 90° (E) 08:53:22 145.826/435.025
ISS 05 Mar 09:00:09 09:03:22 71° 332° (NNW) 09:06:35 145.825
GOMX 1 05 Mar 09:01:33 09:05:58 87° 109° (ESE) 09:10:09 467.674
BUGSAT 1 05 Mar 09:06:52 09:09:16 15° 63° (ENE) 09:11:49 437.445
SEEDS 05 Mar 09:10:01 09:14:17 86° 102° (ESE) 09:18:32 437.485
QB50P1 05 Mar 09:10:23 09:13:34 21° 65° (ENE) 09:16:50 145.935-145.965
CINEMA 3 05 Mar 09:10:23 09:14:17 38° 97° (E) 09:18:11 145.822/145.860
BRITE-PL 05 Mar 09:11:14 09:15:39 50° 288° (WNW) 09:19:46 437.365/2234.400
CUBEBUG 2 05 Mar 09:12:36 09:15:54 23° 93° (E) 09:19:18 437.445
QB50P2 05 Mar 09:15:01 09:18:24 24° 66° (ENE) 09:21:51 145.880/145.840
HO-68 05 Mar 09:16:09 09:23:24 89° 103° (ESE) 09:30:38 435.675
DX 1 05 Mar 09:16:42 09:19:29 17° 90° (E) 09:22:24 434.975-435.025
CANX-2 05 Mar 09:17:51 09:22:03 61° 287° (WNW) 09:26:16 2200.000
HUMSAT D 05 Mar 09:22:59 09:23:42 10° 86° (E) 09:24:40 437.325/437.525
DOVE 4 05 Mar 09:23:04 09:27:21 81° 283° (WNW) 09:31:30 437.250
UNISAT 6 05 Mar 09:23:47 09:27:59 48° 72° (ENE) 09:32:10 437.425
DELFI C3 05 Mar 09:24:56 09:28:40 34° 96° (E) 09:32:26 145.870
DUCHIFAT 1 05 Mar 09:27:11 09:30:53 30° 68° (ENE) 09:34:38 145.980
AISAT 05 Mar 09:34:20 09:35:26 11° 86° (E) 09:36:48 437.250
CUTE 1.7 + AOD 2 05 Mar 09:36:10 09:40:13 43° 289° (WNW) 09:44:14 437.475
GONETS M04 05 Mar 09:36:53 09:45:16 52° 270° (W) 09:53:36
FUNcube-1 05 Mar 09:37:24 09:41:01 29° 95° (E) 09:44:41 145.935
ZACube-1 05 Mar 09:39:40 09:43:21 31° 96° (E) 09:47:06 437.345
VELOX 1 05 Mar 09:41:43 09:43:43 13° 88° (E) 09:45:54 145.980
UKube-1 05 Mar 09:41:55 09:45:41 29° 95° (E) 09:49:29 .
TIGRISAT 05 Mar 09:47:17 09:51:39 84° 77° (ENE) 09:55:59 435.000
POPSAT HIP 1 05 Mar 09:49:19 09:53:28 50° 72° (ENE) 09:57:39 437.405
POLYITAN 1 05 Mar 09:50:15 09:54:26 53° 72° (ENE) 09:58:37 437.675
RS-15 05 Mar 09:55:18 10:04:26 27° 256° (WSW) 10:13:21 29.354- 29.394
O/OREOS (USA 219) 05 Mar 09:59:23 10:03:22 28° 305° (NW) 10:07:20 437.305
ANTELSAT 05 Mar 10:02:33 10:06:54 66° 258° (WSW) 10:11:12 437.575/2403.000
UWE-3 05 Mar 10:05:00 10:09:10 72° 102° (ESE) 10:13:20 435.000/436.395/437.385
ESTCUBE 1 05 Mar 10:08:03 10:10:00 13° 87° (E) 10:12:09 437.505/2401.250
AAUSAT CUBESAT 2 05 Mar 10:09:34 10:13:18 31° 291° (WNW) 10:16:59 437.432
NANOSAT C BR1 05 Mar 10:11:12 10:15:30 87° 76° (ENE) 10:19:48 145.865
COMPASS 1 05 Mar 10:14:39 10:18:08 25° 293° (WNW) 10:21:32 437.405
SO-50 05 Mar 10:19:34 10:24:06 36° 243° (WSW) 10:28:35 436.795
Oscar 11 05 Mar 10:22:38 10:26:48 46° 288° (WNW) 10:30:57 145.826/435.025
50 SAT 05 Mar 10:22:59 10:26:34 33° 96° (E) 10:30:12 437.505
DANDE 05 Mar 10:30:50 10:33:27 50° 77° (ENE) 10:36:01 436.750
ISS 05 Mar 10:37:17 10:40:07 27° 353° (N) 10:42:56 145.825
BUGSAT 1 05 Mar 10:40:06 10:44:20 61° 259° (W) 10:48:36 437.445
GOMX 1 05 Mar 10:42:15 10:43:26 11° 301° (WNW) 10:44:24 467.674
CUSAT 1 05 Mar 10:43:33 10:46:07 59° 262° (W) 10:48:48 437.405
QB50P1 05 Mar 10:45:10 10:49:14 41° 262° (W) 10:53:17 145.935-145.965
CINEMA 3 05 Mar 10:48:11 10:51:19 20° 294° (WNW) 10:54:20 145.822/145.860
SEEDS 05 Mar 10:48:15 10:49:31 11° 299° (WNW) 10:50:35 437.485
CUBEBUG 2 05 Mar 10:48:59 10:52:43 32° 291° (WNW) 10:56:25 437.445
QB50P2 05 Mar 10:50:12 10:54:10 36° 263° (W) 10:58:07 145.880/145.840
DX 1 05 Mar 10:51:50 10:56:06 50° 288° (WNW) 11:00:19 434.975-435.025
HUMSAT D 05 Mar 10:55:58 11:00:05 73° 285° (WNW) 11:04:12 437.325/437.525
DELFI C3 05 Mar 11:00:28 11:03:44 23° 293° (WNW) 11:06:55 145.870
CUBEBUG 1 05 Mar 11:01:50 11:05:59 39° 97° (E) 11:10:07 437.445
UNISAT 6 05 Mar 11:02:09 11:05:07 17° 269° (W) 11:07:55 437.425
DUCHIFAT 1 05 Mar 11:03:02 11:06:44 27° 265° (W) 11:10:24 145.980
HO-68 05 Mar 11:05:04 11:10:21 22° 306° (NW) 11:15:26 435.675
AISAT 05 Mar 11:08:16 11:12:45 80° 285° (WNW) 11:17:10 437.250
FUNcube-1 05 Mar 11:13:49 11:17:20 27° 292° (WNW) 11:20:49 145.935
ZACube-1 05 Mar 11:16:13 11:19:40 25° 293° (WNW) 11:23:03 437.345
VELOX 1 05 Mar 11:16:25 11:20:51 68° 287° (WNW) 11:25:15 145.980
TISAT 1 05 Mar 11:17:31 11:19:33 14° 88° (E) 11:21:47 437.305
UKube-1 05 Mar 11:18:02 11:21:51 29° 293° (WNW) 11:25:35 .
SPROUT 05 Mar 11:23:20 11:26:15 18° 91° (E) 11:29:16 437.525
POPSAT HIP 1 05 Mar 11:26:55 11:29:43 16° 270° (W) 11:32:22 437.405
POLYITAN 1 05 Mar 11:28:02 11:30:44 16° 270° (W) 11:33:16 437.675
ESTCUBE 1 05 Mar 11:42:55 11:47:29 72° 285° (WNW) 11:52:00 437.505/2401.250
UWE-3 05 Mar 11:43:26 11:45:14 12° 298° (WNW) 11:46:51 435.000/436.395/437.385
50 SAT 05 Mar 11:58:20 12:01:26 22° 293° (WNW) 12:04:27 437.505
Gurwin Techsat 1B 05 Mar 12:00:38 12:02:53 13° 57° (ENE) 12:05:23 435.225
Oscar 19 05 Mar 12:03:14 12:08:03 44° 69° (ENE) 12:12:55 437.125/150
ITAMSAT 1 05 Mar 12:09:34 12:13:11 20° 61° (ENE) 12:16:58 435.822/435.867
ISS 05 Mar 12:14:08 12:17:05 31° 13° (NNE) 12:20:01 145.825
SWISSCUBE 05 Mar 12:17:00 12:18:14 11° 85° (E) 12:19:45 437.505
BEESAT 05 Mar 12:24:31 12:26:22 12° 86° (E) 12:28:29 436.000
AO-7 05 Mar 12:32:50 12:36:39 15° 41° (NE) 12:40:51 29.400- 29.500
CUBEBUG 1 05 Mar 12:38:41 12:42:11 23° 295° (WNW) 12:45:33 437.445
AISAT 05 Mar 12:48:06 12:48:40 10° 302° (WNW) 12:49:00 437.250
TISAT 1 05 Mar 12:51:39 12:55:50 59° 287° (WNW) 12:59:59 437.305
ITUPSAT 1 05 Mar 12:52:20 12:56:07 23° 92° (E) 12:59:59 437.325
SPROUT 05 Mar 12:58:31 13:02:38 45° 288° (WNW) 13:06:43 437.525
JAS-2 05 Mar 13:31:25 13:32:48 11° 48° (NE) 13:34:31 435.910
Gurwin Techsat 1B 05 Mar 13:36:48 13:42:06 79° 74° (ENE) 13:47:28 435.225
Oscar 19 05 Mar 13:43:20 13:47:37 26° 267° (W) 13:51:49 437.125/150
ITAMSAT 1 05 Mar 13:47:04 13:52:15 65° 258° (WSW) 13:57:29 435.822/435.867
ISS 05 Mar 13:50:27 13:53:39 71° 213° (SSW) 13:56:52 145.825
SWISSCUBE 05 Mar 13:52:02 13:56:54 88° 285° (WNW) 14:01:43 437.505
BEESAT 05 Mar 14:00:06 14:04:57 81° 285° (WNW) 14:09:45 436.000
AO-7 05 Mar 14:19:47 14:27:43 52° 63° (ENE) 14:35:44 29.400- 29.500
HORYU 2 05 Mar 14:27:08 14:31:31 67° 74° (ENE) 14:35:56 437.375
ITUPSAT 1 05 Mar 14:29:39 14:34:15 44° 291° (WNW) 14:38:48 437.325
YUBILEINY 05 Mar 14:36:00 14:42:57 29° 82° (E) 14:50:13 435.215
STARS 05 Mar 14:58:20 15:02:39 55° 101° (E) 15:06:58 437.465
KKS-1 05 Mar 14:59:02 15:03:31 86° 103° (ESE) 15:07:57 437.445
JAS-2 05 Mar 15:10:55 15:16:25 56° 69° (ENE) 15:22:41 435.910
Gurwin Techsat 1B 05 Mar 15:19:48 15:22:50 15° 273° (W) 15:25:37 435.225
ISS 05 Mar 15:28:57 15:29:33 10° 228° (SW) 15:30:02 145.825
SWISSCUBE 05 Mar 15:31:54 15:34:06 13° 302° (WNW) 15:36:06 437.505
BEESAT 05 Mar 15:40:20 15:42:05 12° 302° (WNW) 15:43:37 436.000
BEESAT 3 05 Mar 15:42:24 15:45:22 20° 114° (ESE) 15:48:29 437.485
Cubesat XI-IV 05 Mar 16:00:27 16:03:56 18° 59° (ENE) 16:07:35 437.490
HORYU 2 05 Mar 16:06:30 16:08:44 13° 272° (W) 16:10:45 437.375
CUTE-I 05 Mar 16:08:05 16:11:54 21° 61° (ENE) 16:15:52 437.470
BEESAT 2 05 Mar 16:10:39 16:14:20 33° 117° (ESE) 16:18:07 435.950
AO-7 05 Mar 16:12:59 16:20:46 41° 263° (W) 16:28:28 29.400- 29.500
AUBIESAT-1 05 Mar 16:22:44 16:26:39 33° 102° (ESE) 16:30:50 437.475
M-CUBED/EXP-1 PRIME 05 Mar 16:23:25 16:27:25 37° 103° (ESE) 16:31:44 437.505
AIST 2 05 Mar 16:26:27 16:29:30 20° 113° (ESE) 16:32:40 435.215
YUBILEINY 05 Mar 16:30:27 16:39:10 68° 283° (WNW) 16:47:59 435.215
AIST 1 05 Mar 16:31:18 16:33:42 15° 65° (ENE) 16:36:17
MOZHAYETS 4 05 Mar 16:32:43 16:37:11 46° 98° (E) 16:41:40
STARS 05 Mar 16:35:51 16:38:45 17° 297° (WNW) 16:41:31 437.465
KKS-1 05 Mar 16:37:47 16:39:34 12° 301° (WNW) 16:41:08 437.445
O/OREOS (USA 219) 05 Mar 16:49:02 16:51:40 15° 46° (NE) 16:54:25 437.305
JAS-2 05 Mar 16:57:31 17:02:08 24° 272° (W) 17:07:01 435.910
VERMONT LUNAR 05 Mar 16:57:55 17:00:53 26° 165° (SSE) 17:03:53 437.305
BEESAT 3 05 Mar 17:19:12 17:23:11 47° 311° (NW) 17:27:14 437.485
PHONESAT 2.4 05 Mar 17:24:40 17:27:40 24° 162° (SSE) 17:30:41 2401.200-2431.200
Cubesat XI-IV 05 Mar 17:38:08 17:43:30 75° 257° (WSW) 17:48:56 437.490
CUTE-I 05 Mar 17:46:12 17:51:32 65° 258° (WSW) 17:56:55 437.470
BEESAT 2 05 Mar 17:48:47 17:52:32 31° 316° (NW) 17:56:17 435.950
AUBIESAT-1 05 Mar 17:57:42 18:01:27 30° 297° (WNW) 18:05:23 437.475
M-CUBED/EXP-1 PRIME 05 Mar 17:58:37 18:02:15 27° 297° (WNW) 18:06:01 437.505
HO-68 05 Mar 18:02:10 18:06:48 20° 52° (NE) 18:11:42 435.675
AIST 2 05 Mar 18:03:37 18:07:47 51° 310° (NW) 18:12:01 435.215
PRISM 05 Mar 18:03:41 18:07:24 30° 95° (E) 18:11:10 437.425
AIST 1 05 Mar 18:07:31 18:11:53 60° 265° (W) 18:16:11
MOZHAYETS 4 05 Mar 18:10:35 18:14:10 22° 295° (WNW) 18:17:40
STRAND 1 05 Mar 18:26:37 18:31:15 33° 95° (E) 18:35:53 437.568
O/OREOS (USA 219) 05 Mar 18:27:09 18:31:47 81° 247° (WSW) 18:36:20 437.305
YUBILEINY 05 Mar 18:32:56 18:38:11 16° 308° (NW) 18:42:59 435.215
VERMONT LUNAR 05 Mar 18:35:08 18:38:23 36° 181° (S) 18:41:38 437.305
GOMX 1 05 Mar 18:35:14 18:38:29 17° 63° (ENE) 18:41:47 467.674
CANX-2 05 Mar 18:39:24 18:41:31 14° 63° (ENE) 18:43:48 2200.000
